TimeEDT,TemperatureF,Dew PointF,Humidity,Sea Level PressureIn,VisibilityMPH,Wind Direction,Wind SpeedMPH,Gust SpeedMPH,PrecipitationIn,Events,Conditions,WindDirDegrees,DateUTC
12:53 AM,59.0,52.0,78,30.01,10.0,West,3.5,-,N/A,,Clear,280,2013-05-07 04:53:00
1:53 AM,57.9,53.1,84,30.01,10.0,WNW,3.5,-,N/A,,Clear,290,2013-05-07 05:53:00
2:53 AM,57.9,52.0,81,29.99,10.0,WNW,4.6,-,N/A,,Clear,290,2013-05-07 06:53:00
4:53 AM,55.0,52.0,89,29.99,10.0,Calm,Calm,-,N/A,,Clear,0,2013-05-07 08:53:00
5:53 AM,57.9,54.0,87,29.99,10.0,Calm,Calm,-,N/A,,Clear,0,2013-05-07 09:53:00
6:53 AM,57.0,54.0,89,30.01,10.0,Calm,Calm,-,N/A,,Clear,0,2013-05-07 10:53:00
7:53 AM,61.0,55.9,83,30.03,10.0,SSW,6.9,-,N/A,,Clear,210,2013-05-07 11:53:00
8:53 AM,64.9,55.9,73,30.03,10.0,WSW,5.8,-,N/A,,Clear,240,2013-05-07 12:53:00
9:53 AM,70.0,54.0,57,30.04,10.0,WSW,8.1,-,N/A,,Scattered Clouds,240,2013-05-07 13:53:00
10:53 AM,71.1,54.0,55,30.05,10.0,WSW,10.4,-,N/A,,Mostly Cloudy,240,2013-05-07 14:53:00
11:53 AM,75.0,55.0,50,30.05,10.0,WSW,10.4,17.3,N/A,,Scattered Clouds,240,2013-05-07 15:53:00
12:53 PM,75.9,55.0,48,30.02,10.0,WSW,9.2,-,N/A,,Mostly Cloudy,240,2013-05-07 16:53:00
1:53 PM,78.1,55.0,45,30.01,10.0,SW,12.7,-,N/A,,Scattered Clouds,230,2013-05-07 17:53:00
2:53 PM,77.0,54.0,45,30.00,10.0,West,12.7,19.6,N/A,,Overcast,270,2013-05-07 18:53:00
3:53 PM,77.0,55.9,48,29.99,10.0,West,12.7,23.0,N/A,,Overcast,280,2013-05-07 19:53:00
4:53 PM,75.9,55.0,48,29.99,10.0,West,16.1,21.9,N/A,,Overcast,260,2013-05-07 20:53:00
5:53 PM,75.0,55.9,51,30.00,10.0,West,16.1,24.2,N/A,,Scattered Clouds,280,2013-05-07 21:53:00
6:53 PM,73.0,57.0,57,30.00,10.0,West,10.4,-,N/A,,Mostly Cloudy,270,2013-05-07 22:53:00
7:53 PM,71.1,59.0,66,30.02,10.0,West,11.5,-,N/A,,Clear,280,2013-05-07 23:53:00
8:53 PM,70.0,60.1,71,30.04,10.0,West,8.1,-,N/A,,Clear,260,2013-05-08 00:53:00
9:53 PM,68.0,60.1,76,30.06,10.0,WSW,5.8,-,N/A,,Clear,250,2013-05-08 01:53:00
10:53 PM,66.0,60.1,81,30.07,10.0,WSW,4.6,-,N/A,,Clear,240,2013-05-08 02:53:00
11:53 PM,64.0,60.1,87,30.07,10.0,Calm,Calm,-,N/A,,Clear,0,2013-05-08 03:53:00